Flag for Israel Weather past 2 weeks in Holon, Israel

Now
66 °F

Sunny.


Feels Like: 66 °F
Forecast: 60 / 66 °F
Wind: 9 mph from Northwest

Location: Dov Airport

Current Time: Jan 26, 2015 at 2:29:38 PM

Latest Report: Jan 26, 2015 at 1:50 PM


Visibility: 10 mi

Pressure: 30.04 "Hg

Humidity: 64%

Dew point: 54 °F

Location of HolonLocation

Historic Weather in Holon — Graph

°F

Holon temperature yesterday

Maximum temperature yesterday: 64 °F (at 1:50 PM)
Minimum temperature yesterday: 54 °F (at 6:50 AM)
Average temperature yesterday: 61 °F

Past Weeks' High & Low Weather Summary

 TemperatureHumidityPressure
High72 °F (Jan 21, 3:50 PM)94% (Jan 25, 7:50 PM)30.33 "Hg (Jan 25, 7:50 PM)
Low46 °F (Jan 12, 5:50 AM)31% (Jan 24, 9:50 AM)29.89 "Hg (Jan 24, 12:50 PM)
Average58 °F66%30.11 "Hg
* Reported Jan 11 12:50 PM — Jan 26 12:50 PM, Holon, Weather by CustomWeather, © 2014

Note: Actual official high and low records may vary slightly from our data, if they occured in-between our weather recording intervals... More about our weather records

Advertising

Holon weather history for previous 24 hours

 ConditionsComfort  
Time TempWeatherWind HumidityBarometerVisibility
12:50 PM
Jan 26
66 °FSunny.7 mph68%30.07 "Hg10 mi
11:50 AM66 °FClear.6 mph64%30.07 "Hg5 mi
10:50 AM64 °FPartly sunny.3 mph78%30.09 "Hg5 mi
9:50 AM66 °FScattered clouds.1 mph68%30.09 "Hg4 mi
8:50 AM63 °FScattered clouds.3 mph77%30.07 "Hg3 mi
7:50 AM57 °FHaze.3 mph88%30.07 "Hg2 mi
6:50 AM57 °FHaze.5 mph88%30.07 "Hg2 mi
5:50 AM57 °FFog.6 mph88%30.04 "Hg2 mi
10:50 PM
Jan 25
61 °FFog.No wind94%30.01 "Hg1 mi
9:50 PM61 °FFog.No wind94%30.04 "Hg1 mi
8:50 PM61 °FFog.2 mph88%30.01 "Hg2 mi
7:50 PM61 °FHaze.2 mph94%30.04 "Hg2 mi
6:50 PM63 °FHaze.2 mph88%30.01 "Hg2 mi
5:50 PM63 °FHaze.No wind88%30.01 "Hg3 mi
4:50 PM63 °FHaze.2 mph88%30.01 "Hg3 mi
3:50 PM64 °FHaze.7 mph83%29.98 "Hg2 mi
2:50 PM64 °FHaze.6 mph83%29.98 "Hg2 mi
Weather by CustomWeather, © 2014

See weather overviewHow to use our weather pages